Hourly Weather Rudno

Today, 19 April, Monday

Time Temperature Precipitation Wind Pressure Humidity
00:00 +6°C° 0 mm 2 mps 760 mmHg 88%
01:00 +6°C° 0 mm 2 mps 760 mmHg 88%
02:00 +6°C° 0.1 mm 2 mps 760 mmHg 90%
03:00 +6°C° 0.1 mm 2 mps 760 mmHg 92%
04:00 +6°C° 0.1 mm 2 mps 759 mmHg 94%
05:00 +7°C° 0 mm 2 mps 759 mmHg 90%
06:00 +8°C° 0 mm 2 mps 759 mmHg 86%
07:00 +10°C° 0 mm 3 mps 759 mmHg 82%
08:00 +11°C° 0 mm 3 mps 759 mmHg 74%
09:00 +13°C° 0 mm 3 mps 759 mmHg 66%
10:00 +15°C° 0 mm 4 mps 759 mmHg 58%
11:00 +15°C° 0 mm 4 mps 759 mmHg 54%
12:00 +17°C° 0 mm 4 mps 759 mmHg 51%
13:00 +17°C° 0 mm 4 mps 759 mmHg 47%
14:00 +17°C° 0 mm 4 mps 759 mmHg 51%
15:00 +15°C° 0 mm 5 mps 758 mmHg 55%
16:00 +14°C° 0 mm 5 mps 758 mmHg 59%
17:00 +12°C° 0.1 mm 4 mps 758 mmHg 65%
18:00 +11°C° 0.1 mm 4 mps 758 mmHg 71%
19:00 +9°C° 0.1 mm 3 mps 759 mmHg 76%
20:00 +9°C° 0 mm 2 mps 758 mmHg 76%
21:00 +9°C° 0 mm 2 mps 758 mmHg 76%
22:00 +10°C° 0 mm 1 mps 758 mmHg 76%
23:00 +10°C° 0 mm 1 mps 758 mmHg 77%

Tomorrow, 20 April, Tuesday

Time Temperature Precipitation Wind Pressure Humidity
00:00 +10°C° 0 mm 1 mps 758 mmHg 77%
01:00 +10°C° 0 mm 1 mps 758 mmHg 77%
02:00 +10°C° 0 mm 1 mps 758 mmHg 78%
03:00 +9°C° 0 mm 1 mps 758 mmHg 79%
04:00 +9°C° 0 mm 1 mps 758 mmHg 80%
05:00 +10°C° 0 mm 1 mps 758 mmHg 78%
06:00 +10°C° 0 mm 1 mps 758 mmHg 76%
07:00 +11°C° 0 mm 1 mps 758 mmHg 75%
08:00 +12°C° 0 mm 2 mps 758 mmHg 68%
09:00 +13°C° 0 mm 2 mps 757 mmHg 62%
10:00 +15°C° 0 mm 2 mps 757 mmHg 56%
11:00 +15°C° 0.1 mm 2 mps 757 mmHg 53%
12:00 +15°C° 0.1 mm 2 mps 757 mmHg 51%
13:00 +16°C° 0.1 mm 2 mps 756 mmHg 48%
14:00 +14°C° 0 mm 3 mps 756 mmHg 50%
15:00 +14°C° 0 mm 3 mps 756 mmHg 52%
16:00 +14°C° 0 mm 3 mps 755 mmHg 55%
17:00 +12°C° 0 mm 3 mps 755 mmHg 62%
18:00 +10°C° 0 mm 3 mps 755 mmHg 70%
19:00 +9°C° 0 mm 2 mps 755 mmHg 77%
20:00 +8°C° 0 mm 2 mps 755 mmHg 78%
21:00 +8°C° 0 mm 1 mps 755 mmHg 79%
22:00 +8°C° 0 mm 1 mps 755 mmHg 79%
23:00 +7°C° 0 mm 1 mps 755 mmHg 78%

Day after tomorrow, 21 April, Wednesday

Time Temperature Precipitation Wind Pressure Humidity
00:00 +7°C° 0 mm 1 mps 754 mmHg 78%
01:00 +6°C° 0 mm 0 mps 754 mmHg 77%
02:00 +7°C° 0 mm 1 mps 754 mmHg 75%
03:00 +8°C° 0 mm 1 mps 754 mmHg 74%
04:00 +8°C° 0 mm 1 mps 753 mmHg 73%
05:00 +9°C° 0 mm 1 mps 753 mmHg 71%
06:00 +10°C° 0 mm 1 mps 753 mmHg 70%
07:00 +11°C° 0 mm 1 mps 753 mmHg 69%
08:00 +12°C° 0.1 mm 1 mps 753 mmHg 63%
09:00 +13°C° 0.1 mm 2 mps 752 mmHg 58%
10:00 +14°C° 0.1 mm 2 mps 752 mmHg 53%
11:00 +15°C° 0.1 mm 2 mps 752 mmHg 50%
12:00 +15°C° 0.1 mm 2 mps 751 mmHg 47%
13:00 +16°C° 0.1 mm 2 mps 751 mmHg 44%
14:00 +15°C° 0 mm 2 mps 751 mmHg 47%
15:00 +14°C° 0 mm 3 mps 751 mmHg 49%
16:00 +13°C° 0 mm 3 mps 751 mmHg 52%
17:00 +12°C° 0.1 mm 3 mps 751 mmHg 60%
18:00 +10°C° 0.1 mm 4 mps 751 mmHg 68%
19:00 +7°C° 0.1 mm 4 mps 751 mmHg 76%
20:00 +7°C° 0.1 mm 4 mps 751 mmHg 75%
21:00 +6°C° 0.1 mm 4 mps 751 mmHg 74%
22:00 +5°C° 0.1 mm 3 mps 751 mmHg 73%
23:00 +4°C° 0 mm 4 mps 751 mmHg 73%

22 April, Thursday

Time Temperature Precipitation Wind Pressure Humidity
00:00 +4°C° 0 mm 4 mps 751 mmHg 74%
01:00 +3°C° 0 mm 4 mps 751 mmHg 74%
02:00 +1°C° 0 mm 5 mps 751 mmHg 75%
03:00 +1°C° 0 mm 5 mps 751 mmHg 76%
04:00 0°C° 0 mm 5 mps 751 mmHg 77%
05:00 +1°C° 0 mm 6 mps 751 mmHg 74%
06:00 +1°C° 0 mm 6 mps 751 mmHg 71%
07:00 +2°C° 0 mm 7 mps 751 mmHg 68%
08:00 +2°C° 0 mm 7 mps 751 mmHg 67%
09:00 +3°C° 0 mm 7 mps 751 mmHg 66%
10:00 +2°C° 0 mm 8 mps 752 mmHg 66%
11:00 +4°C° 0.1 mm 7 mps 751 mmHg 63%
12:00 +5°C° 0.1 mm 7 mps 751 mmHg 60%
13:00 +5°C° 0.1 mm 7 mps 751 mmHg 57%
14:00 +6°C° 0.1 mm 7 mps 751 mmHg 57%
15:00 +6°C° 0.1 mm 7 mps 751 mmHg 57%
16:00 +6°C° 0.1 mm 7 mps 751 mmHg 57%
17:00 +5°C° 0.2 mm 6 mps 751 mmHg 66%
18:00 +5°C° 0.2 mm 5 mps 751 mmHg 74%
19:00 +2°C° 0.2 mm 5 mps 751 mmHg 82%
20:00 +3°C° 0 mm 4 mps 751 mmHg 84%
21:00 +1°C° 0 mm 4 mps 751 mmHg 87%
22:00 +1°C° 0 mm 4 mps 751 mmHg 89%
23:00 +1°C° 0 mm 4 mps 751 mmHg 89%

23 April, Friday

Time Temperature Precipitation Wind Pressure Humidity
00:00 +1°C° 0 mm 5 mps 751 mmHg 88%
01:00 +2°C° 0 mm 5 mps 751 mmHg 88%
02:00 +1°C° 0 mm 5 mps 751 mmHg 88%
03:00 +1°C° 0 mm 5 mps 752 mmHg 88%
04:00 +1°C° 0 mm 5 mps 752 mmHg 88%
05:00 +1°C° 0 mm 6 mps 753 mmHg 85%
06:00 +2°C° 0 mm 6 mps 753 mmHg 82%
07:00 +2°C° 0 mm 6 mps 754 mmHg 79%
08:00 +3°C° 0.1 mm 6 mps 754 mmHg 79%
09:00 +3°C° 0.1 mm 6 mps 755 mmHg 79%
10:00 +3°C° 0.1 mm 6 mps 756 mmHg 78%
11:00 +4°C° 0.2 mm 7 mps 756 mmHg 69%
12:00 +5°C° 0.2 mm 7 mps 756 mmHg 59%
13:00 +6°C° 0.2 mm 7 mps 756 mmHg 50%
14:00 +6°C° 0 mm 7 mps 757 mmHg 47%
15:00 +5°C° 0 mm 7 mps 757 mmHg 44%
16:00 +5°C° 0 mm 7 mps 757 mmHg 42%
17:00 +4°C° 0 mm 6 mps 758 mmHg 45%
18:00 +3°C° 0 mm 5 mps 758 mmHg 49%
19:00 +1°C° 0 mm 4 mps 758 mmHg 52%
20:00 +2°C° 0 mm 3 mps 757 mmHg 56%
21:00 +1°C° 0 mm 3 mps 757 mmHg 60%
22:00 +2°C° 0 mm 2 mps 757 mmHg 63%
23:00 +2°C° 0 mm 2 mps 757 mmHg 66%

24 April, Saturday

Time Temperature Precipitation Wind Pressure Humidity
00:00 +1°C° 0 mm 3 mps 757 mmHg 68%
01:00 0°C° 0 mm 3 mps 756 mmHg 70%
02:00 0°C° 0 mm 3 mps 756 mmHg 75%
03:00 0°C° 0 mm 3 mps 756 mmHg 80%
04:00 -1°C° 0 mm 3 mps 756 mmHg 85%
05:00 0°C° 0 mm 4 mps 756 mmHg 77%
06:00 +1°C° 0 mm 4 mps 756 mmHg 69%
07:00 +2°C° 0 mm 5 mps 756 mmHg 61%
08:00 +3°C° 0 mm 5 mps 756 mmHg 54%
09:00 +4°C° 0 mm 6 mps 756 mmHg 47%
10:00 +5°C° 0 mm 6 mps 757 mmHg 40%
11:00 +5°C° 0.1 mm 6 mps 757 mmHg 42%
12:00 +5°C° 0.1 mm 6 mps 757 mmHg 44%
13:00 +5°C° 0.1 mm 7 mps 757 mmHg 46%
14:00 +5°C° 0.3 mm 7 mps 757 mmHg 48%
15:00 +5°C° 0.3 mm 7 mps 758 mmHg 50%
16:00 +4°C° 0.3 mm 6 mps 758 mmHg 52%
17:00 +3°C° 0 mm 6 mps 758 mmHg 59%
18:00 +2°C° 0 mm 5 mps 758 mmHg 66%
19:00 +1°C° 0 mm 5 mps 759 mmHg 73%
20:00 +1°C° 0 mm 5 mps 759 mmHg 78%
21:00 0°C° 0 mm 5 mps 759 mmHg 83%
22:00 0°C° 0 mm 5 mps 759 mmHg 89%
23:00 0°C° 0.1 mm 5 mps 759 mmHg 89%
Show more